Falfurrias, TX

5:15 PM CST on November 11, 2019 (GMT -0600)
Falfurrias

Weather History for KBKS - September, 2019

Change the Weather History Date:

Thursday, September 19, 2019

  Actual Average (WUND) Record (WUND)
Temperature  
Mean Temperature 88 °F -  
Max Temperature 97 °F - - (-1)
Min Temperature 79 °F - - (-1)
Cooling Degree Days 23    
Growing Degree Days 38 (Base 50)    
Moisture  
Dew Point 76 °F    
Average Humidity 70    
Maximum Humidity 93    
Minimum Humidity 43    
Precipitation  
Precipitation 0.00 in - - ()
Sea Level Pressure  
Sea Level Pressure 29.83 in    
Wind  
Wind Speed 8 mph ()    
Max Wind Speed 20 mph    
Max Gust Speed 23 mph    
Visibility 8.1 miles    
Events      
Averages and records for this station are not official NWS values.
T = Trace of Precipitation, MM = Missing Value Source: Averaged Metar Reports

Daily Weather History Graph

Daily Weather History Graph

Search for Another Location

Airport or City:

Astronomy

Sep. 19, 2019 Rise Set
Actual Time 7:19 AM CDT 7:32 PM CDT
Civil Twilight 6:56 AM CDT 7:55 PM CDT
Nautical Twilight 6:29 AM CDT 8:22 PM CDT
Astronomical Twilight 6:01 AM CDT 8:50 PM CDT
Moon 11:09 PM CDT (9/19) 11:59 AM CDT (9/19)
Length of Visible Light 12h 59m
Length of Day
12h 13m
Waning Gibbous, 74% of the Moon is Illuminated
Sep 19
Waning Gibbous
Sep 21
Last Quarter
Sep 28
New
Oct 5
First Quarter
Oct 13
Full

Hourly Weather History & Observations

Time (CDT) Temp. Heat Index Dew Point Humidity Pressure Visibility Wind Dir Wind Speed Gust Speed Precip Events Conditions
12:15 AM 82.4 °F 90.1 °F 76.1 °F 81% 29.86 in 10.0 mi SSE 6.9 mph - N/A   Clear
12:35 AM 82.4 °F 90.3 °F 76.3 °F 82% 29.86 in 10.0 mi SSE 8.1 mph - N/A   Clear
12:55 AM 82.4 °F 90.6 °F 76.6 °F 83% 29.87 in 10.0 mi SSE 6.9 mph - N/A   Clear
1:15 AM 82.0 °F 89.9 °F 76.8 °F 84% 29.87 in 10.0 mi South 6.9 mph - N/A   Clear
1:35 AM 82.0 °F 90.2 °F 77.0 °F 85% 29.87 in 10.0 mi SSE 8.1 mph - N/A   Clear
1:55 AM 81.7 °F 89.5 °F 77.0 °F 86% 29.86 in 7.0 mi SSE 5.8 mph - N/A   Clear
2:15 AM 81.5 °F 89.0 °F 77.0 °F 86% 29.86 in 7.0 mi SSE 4.6 mph - N/A   Clear
2:35 AM 81.0 °F 87.9 °F 77.0 °F 88% 29.85 in 7.0 mi SSE 4.6 mph - N/A   Clear
2:55 AM 80.8 °F 87.4 °F 77.0 °F 88% 29.85 in 7.0 mi SSE 4.6 mph - N/A   Clear
3:10 AM 80.6 °F 87.1 °F 77.0 °F 89% 29.85 in 7.0 mi SE 4.6 mph - N/A   Clear
3:35 AM 80.6 °F 87.3 °F 77.4 °F 90% 29.85 in 5.0 mi SE 4.6 mph - N/A   Clear
3:55 AM 80.8 °F 87.8 °F 77.5 °F 90% 29.84 in 5.0 mi SE 3.5 mph - N/A   Mostly Cloudy
4:15 AM 81.1 °F 88.9 °F 77.9 °F 90% 29.84 in 5.0 mi SE 3.5 mph - N/A   Overcast
4:35 AM 81.0 °F 88.4 °F 77.9 °F 90% 29.83 in 5.0 mi Calm Calm - N/A   Overcast
4:55 AM 81.3 °F 89.4 °F 78.1 °F 90% 29.84 in 5.0 mi SE 3.5 mph - N/A   Mostly Cloudy
5:15 AM 81.1 °F 88.9 °F 78.1 °F 90% 29.84 in 5.0 mi SE 3.5 mph - N/A   Scattered Clouds
5:35 AM 80.2 °F 86.5 °F 77.4 °F 91% 29.84 in 3.0 mi ESE 3.5 mph - N/A   Unknown
5:55 AM 79.9 °F - 77.2 °F 91% 29.84 in 3.0 mi ESE 3.5 mph - N/A   Unknown
6:15 AM 79.9 °F - 77.2 °F 91% 29.84 in 3.0 mi SE 3.5 mph - N/A   Unknown
6:35 AM 80.6 °F 87.5 °F 77.9 °F 91% 29.84 in 4.0 mi SSE 4.6 mph - N/A   Clear
6:55 AM 80.4 °F 87.0 °F 77.7 °F 91% 29.84 in 3.0 mi SSE 3.5 mph - N/A   Unknown
7:15 AM 80.1 °F 86.0 °F 77.4 °F 91% 29.85 in 3.0 mi Calm Calm - N/A   Unknown
7:35 AM 79.9 °F - 77.2 °F 91% 29.85 in 3.0 mi SE 3.5 mph - N/A   Unknown
7:55 AM 80.2 °F 86.8 °F 77.9 °F 93% 29.85 in 3.0 mi SE 3.5 mph - N/A   Unknown
8:15 AM 81.0 °F 88.6 °F 78.3 °F 91% 29.85 in 2.0 mi SE 4.6 mph - N/A   Unknown
8:35 AM 81.7 °F 90.8 °F 78.8 °F 91% 29.87 in 3.0 mi SE 6.9 mph - N/A   Unknown
8:55 AM 82.6 °F 93.0 °F 79.0 °F 89% 29.87 in 4.0 mi SSE 8.1 mph - N/A   Scattered Clouds
9:15 AM 84.2 °F 96.1 °F 79.0 °F 84% 29.87 in 5.0 mi SSE 10.4 mph - N/A   Scattered Clouds
9:35 AM 85.1 °F 98.0 °F 79.0 °F 82% 29.87 in 7.0 mi SSE 12.7 mph 16.1 mph N/A   Mostly Cloudy
9:55 AM 85.3 °F 97.2 °F 78.3 °F 79% 29.88 in 7.0 mi South 13.8 mph - N/A   Mostly Cloudy
10:15 AM 87.4 °F 100.9 °F 78.4 °F 74% 29.88 in 7.0 mi SSE 16.1 mph - N/A   Scattered Clouds
10:35 AM 88.0 °F 100.7 °F 77.7 °F 71% 29.88 in 10.0 mi South 15.0 mph - N/A   Mostly Cloudy
10:55 AM 89.6 °F 103.4 °F 77.7 °F 68% 29.87 in 10.0 mi South 12.7 mph 19.6 mph N/A   Scattered Clouds
11:15 AM 90.5 °F 102.1 °F 75.9 °F 62% 29.87 in 10.0 mi South 19.6 mph 23.0 mph N/A   Scattered Clouds
11:35 AM 92.1 °F 104.3 °F 76.1 °F 59% 29.86 in 10.0 mi SSE 10.4 mph - N/A   Scattered Clouds
11:55 AM 91.8 °F 101.5 °F 74.3 °F 56% 29.86 in 10.0 mi South 17.3 mph 20.7 mph N/A   Scattered Clouds
12:15 PM 91.9 °F 101.3 °F 73.8 °F 55% 29.85 in 10.0 mi South 11.5 mph 19.6 mph N/A   Scattered Clouds
12:35 PM 93.7 °F 102.9 °F 73.4 °F 51% 29.85 in 10.0 mi South 16.1 mph 20.7 mph N/A   Scattered Clouds
12:55 PM 93.9 °F 104.0 °F 73.9 °F 52% 29.83 in 10.0 mi South 11.5 mph - N/A   Scattered Clouds
1:15 PM 95.5 °F 105.1 °F 72.9 °F 48% 29.83 in 10.0 mi South 15.0 mph 20.7 mph N/A   Scattered Clouds
1:35 PM 94.3 °F 103.5 °F 73.0 °F 50% 29.82 in 10.0 mi South 12.7 mph 18.4 mph N/A   Scattered Clouds
1:55 PM 96.1 °F 107.1 °F 73.9 °F 49% 29.81 in 10.0 mi South 10.4 mph 18.4 mph N/A   Scattered Clouds
2:15 PM 96.3 °F 106.8 °F 73.9 °F 48% 29.81 in 10.0 mi South 12.7 mph - N/A   Scattered Clouds
2:35 PM 95.4 °F 106.1 °F 73.9 °F 50% 29.80 in 10.0 mi SSE 13.8 mph - N/A   Scattered Clouds
2:55 PM 94.6 °F 106.5 °F 74.8 °F 53% 29.79 in 10.0 mi SE 11.5 mph 21.9 mph N/A   Mostly Cloudy
3:15 PM 96.6 °F 106.9 °F 73.2 °F 47% 29.79 in 10.0 mi South 12.7 mph 21.9 mph N/A   Mostly Cloudy
3:35 PM 96.6 °F 107.6 °F 74.3 °F 48% 29.78 in 10.0 mi SE 12.7 mph 20.7 mph N/A   Scattered Clouds
3:55 PM 97.9 °F 109.1 °F 73.6 °F 46% 29.78 in 10.0 mi South 12.7 mph 19.6 mph N/A   Scattered Clouds
4:15 PM 97.0 °F 107.0 °F 73.2 °F 46% 29.78 in 10.0 mi SSE 11.5 mph 17.3 mph N/A   Scattered Clouds
4:35 PM 97.0 °F 107.0 °F 73.0 °F 46% 29.77 in 10.0 mi SSE 11.5 mph - N/A   Scattered Clouds
4:55 PM 96.8 °F 105.8 °F 72.3 °F 45% 29.77 in 10.0 mi SSE 15.0 mph 19.6 mph N/A   Scattered Clouds
5:15 PM 97.0 °F 104.8 °F 71.2 °F 43% 29.76 in 10.0 mi SSE 11.5 mph 23.0 mph N/A   Clear
5:35 PM 95.9 °F 104.5 °F 71.8 °F 46% 29.76 in 10.0 mi South 13.8 mph 19.6 mph N/A   Clear
5:55 PM 95.4 °F 104.7 °F 72.9 °F 48% 29.76 in 10.0 mi SSE 16.1 mph 20.7 mph N/A   Clear
6:15 PM 95.4 °F 104.0 °F 72.1 °F 47% 29.76 in 10.0 mi SSE 16.1 mph - N/A   Clear
6:35 PM 94.6 °F 103.0 °F 72.0 °F 48% 29.76 in 10.0 mi SSE 15.0 mph - N/A   Clear
6:55 PM 94.1 °F 102.5 °F 72.3 °F 49% 29.77 in 10.0 mi SSE 15.0 mph - N/A   Clear
7:15 PM 92.7 °F 101.7 °F 73.4 °F 53% 29.78 in 10.0 mi SE 16.1 mph 19.6 mph N/A   Clear
7:35 PM 91.6 °F 100.5 °F 73.4 °F 55% 29.78 in 10.0 mi SSE 12.7 mph 17.3 mph N/A   Clear
7:55 PM 90.7 °F 100.7 °F 74.7 °F 59% 29.79 in 10.0 mi SE 11.5 mph 18.4 mph N/A   Clear
8:15 PM 89.6 °F 100.4 °F 75.6 °F 63% 29.80 in 10.0 mi SE 12.7 mph 17.3 mph N/A   Clear
8:55 PM 87.8 °F 97.6 °F 75.4 °F 66% 29.82 in 10.0 mi SE 11.5 mph 17.3 mph N/A   Clear
9:15 PM 87.1 °F 96.8 °F 75.4 °F 68% 29.83 in 10.0 mi SE 10.4 mph - N/A   Clear
9:35 PM 86.4 °F 96.0 °F 75.7 °F 70% 29.83 in 10.0 mi SE 10.4 mph 16.1 mph N/A   Clear
9:55 PM 86.0 °F 95.5 °F 75.7 °F 71% 29.84 in 10.0 mi SE 11.5 mph 18.4 mph N/A   Clear
10:15 PM 85.6 °F 94.6 °F 75.2 °F 71% 29.85 in 10.0 mi SE 10.4 mph 16.1 mph N/A   Clear
10:35 PM 85.1 °F 94.1 °F 75.4 °F 73% 29.85 in 10.0 mi SSE 11.5 mph - N/A   Clear
10:55 PM 84.6 °F 93.2 °F 75.4 °F 74% 29.85 in 10.0 mi SSE 11.5 mph - N/A   Clear
11:15 PM 84.2 °F 93.0 °F 75.7 °F 76% 29.85 in 10.0 mi SSE 9.2 mph - N/A   Clear
11:35 PM 83.8 °F 92.5 °F 76.1 °F 77% 29.85 in 10.0 mi SSE 10.4 mph 17.3 mph N/A   Clear
11:55 PM 83.5 °F 92.2 °F 76.3 °F 79% 29.85 in 10.0 mi SSE 10.4 mph - N/A   Clear